FENGYUN 1C DEB *, 47012

Orbit data source: Space-Track

FENGYUN 1C DEB *, 47012 is space debris in SSO originally from a launch on Mon, 10 May 1999 UTC launched from the Taiyaun Space Center, China (TSC). Fengyun 1C debris stems from the Chinese weather satellite Fengyun-1C, which was intentionally destroyed by a Chinese anti-satellite missile in 2007. This event dramatically increased the amount of space debris, with thousands of trackable fragments posing hazards to satellites and human spaceflight. The Fengyun 1C debris cloud has become a focal point in discussions about space sustainability and the need for international regulations to prevent the creation of new debris.

Loading next visibility...
FENGYUN 1C DEB * details
Identifier
47012, 1999-025FAN
Orbit
SSO
Last TLE update1 week ago
Origin
Flag of CNCASC (CN / PRC)
ManufacturerUnknown
MissionSpacecraft
Bus & MotorUnknown
MassUnknown
Launch date (UTC)
1999-05-10 (26 years ago)
Launch vehicleUnknown
Launch site
Taiyaun Space Center, China (TSC)
Object type
Payload
Rocket body
Debris
Shape & HBRUnknown
Radar Cross SectionSmall (<0.1 m²)

Expand to show TLE details & history

TLE from 1 week ago
0 FENGYUN 1C DEB *
1 47012U 99025FAN 24353.99529693  .00001486  00000-0  13903-2 0  9995
2 47012  98.7915 253.5210 0164370 305.4696  53.1211 13.77415929496333
Epoch: 2024-12-18T23:53Z
Definitive object data (Epoch: 2024-12-18T23:53:13.654Z)
Latitude-0.00002°
Longitude167.1326°
Altitude904.683 km
Speed7.435 km/s
True Right ascension16h 54m 05s
True Declination0° 00' 00"
Sunlit
Object was in daylight at TLE epoch
Visualization TLE readout
Latitude54.48634°
Longitude6.73453°
Altitude1,095.333 km
Speed7.253 km/s
Apparent Right ascension05h 23m 23s
Apparent Declination12° 22' 54"
Sunlit
Object is in full shadow
Visualization observer readout
Local Sidereal Time16:39:51
Azimuth346.699° N
Elevation-36.733°
Doppler factor1
Orbital elements
Apogee altitude1,091.071 km
Perigee altitude849.499 km
Semi-major axis7,348.422 km
Eccentricity0.016437
Inclination98.7915°
RAAN253.521°
Arg. of periapsis305.4696°
True anomaly54.64638°
Mean anomaly53.1211°
Eccentric anomaly53.88187°
Mean motion3.4455 °/min
BSTAR0.0013903
Orbital period104.48 mins
Loading maneuver chart data...
Loading historical data...
Loading historical data...
Loading historical data...
Loading historical data...
Loading historical data...
Loading historical data...
Loading historical data...

FENGYUN 1C DEB * Visibility forecast

Observer location: undefined°, undefined

Span
Click to sort rows by Start time (UTC) header in descending order
Start Az.
Max El. time (UTC)
Max El. Az.
Max El.
End time (UTC)
End Az.
10 mins2024-12-26 18:31:33.285Z210.996° SW2024-12-26 18:36:33.285Z268.095° W24.966°2024-12-26 18:41:33.285Z321.955° NNW
9 mins2024-12-27 05:30:33.285Z41.179° NE2024-12-27 05:34:33.285Z92.048° ESE29.679°2024-12-27 05:39:33.285Z154.601° SSE
10 mins2024-12-27 07:13:33.285Z351.558° N2024-12-27 07:17:33.285Z300.535° NW32.872°2024-12-27 07:23:33.285Z227.092° WSW
5 mins2024-12-27 17:12:33.285Z153.508° SSE2024-12-27 17:16:33.285Z105.021° ESE43.099°2024-12-27 17:17:33.285Z36.718° NE
|